Terug naar catalogus

STARLINK-4575

ActiefCommunicatieVLEO
NORAD 53565·PAYLOAD·🇺🇸 United States

Gelanceerd Aug 19, 2022 vanaf Cape Canaveral Space Force Station

Loading…

Volgende Passages (komende 24 uur)

TLE

VersSource: CelesTrak SupGP

Epoch: Sep 14, 2026, 21:34 UTC

1 53565C 22101AQ  26257.89909722  .00052633  00000+0  15552-2 0  2573
2 53565  53.1571 269.8620 0001245  94.5932 217.3885 15.34360742    15

Volg STARLINK-4575 in realtime met AllMySat

Download on the App Store